Location: St. Louis
(38.6270°N, 90.1994°W)
Time: 12:16:19
(UTC-06:00)

A-11 Canister half - Pass Details

Date: 10 December 2021
Orbit: 1524 x 1684 km, 47.3° (Epoch: 25 January)

Event Time Altitude Azimuth Distance (km) Brightness Sun altitude
Rises 00:50:31 0° 255° (WSW) 4,914 - -70.2°
Reaches altitude 10° 00:53:43 10° 258° (WSW) 3,936 - -69.7°
Maximum altitude 01:03:48 65° 340° (NNW) 1,816 - -68.3°
Drops below altitude 10° 01:13:53 10° 62° (ENE) 3,921 - -66.8°
Exits shadow 01:14:10 - 62° (ENE) 4,009 11.4 -66.7°
Sets 01:17:04 0° 65° (ENE) 4,895 12.0 -66.3°
